Location: Dumpton Point
(51.3500°N, 1.4433°E)
Time: 05:35:38
(UTC+00:00)

Altair - Pass Details

Date: 04 October 2022
Orbit: 1501 x 1682 km, 47.2° (Epoch: 26 November)

Event Time Altitude Azimuth Distance (km) Brightness Sun altitude
Rises 04:06:03 0° 213° (SSW) 4,748 - -18.3°
Exits shadow 04:08:31 - 208° (SSW) 4,029 9.3 -18.0°
Reaches altitude 10° 04:09:22 10° 205° (SSW) 3,792 9.2 -17.8°
Maximum altitude 04:17:57 38° 143° (SE) 2,326 8.6 -16.6°
Drops below altitude 10° 04:26:49 10° 80° (E) 3,920 11.0 -15.2°
Sets 04:30:17 0° 73° (ENE) 4,924 12.1 -14.7°
